User: anonymous   Login
Location: Enid
(36.3960°N, 97.8780°W)
Time: 08:54:37
(UTC-05:00)
Language:

Hubble Space Telescope - Orbit

View from above orbital plane
View from above orbital plane
View from above satellite
View from above satellite

Ground track
Ground track

The orbit data is extracted from the following two-line orbital elements,

1 20580U 90037B   15147.79498103  .00001441  00000-0  81384-4 0  9991
2 20580 028.4705 288.5976 0003100 023.6736 125.0917 15.07410988176731
Epoch (UTC): 27 May 2015 19:04:46
Eccentricity: 0.0003100
inclination: 28.4705°
perigee height: 542 km
apogee height: 546 km
right ascension of ascending node: 288.5976°
argument of perigee: 23.6736°
revolutions per day: 15.07410988
mean anomaly at epoch: 125.0917°
orbit number at epoch: 17673

The dashed part of the orbit path shows where the satellite is in the earth's shadow,  

DLR